OBJECT C, 61229

Orbit data source: Space-Track

You're viewing an Uncataloged Satellite

Recently launched and/or uncataloged satellites may have evolving metadata. Metadata may include but not limited to: Owner, Maufacturer, Bus, Motor, and Mission.

OBJECT C, 61229 is a Chinese satellite in SSO that was launched on Tue, 24 Sep 2024 UTC via a JIELONG-3 launch vehicle from the Yellow Sea Launch Area, China (YSLA). Unknown objects in Earth's orbit typically refer to objects detected orbiting the Earth but have not yet been identified or cataloged. These objects could be anything from previously untracked satellites, spent rocket stages, debris from satellite collisions, or even natural meteoroids temporarily captured by Earth's gravity.

Loading next visibility...
Identifier
61229, 2024-173C
Orbit
SSO
Country
Flag of CNCN / PRC
Related business
None
Manufacturer
Unknown
Mission
Operational Amateur Imaging
Bus & Motor
Unknown
Mass
Unknown
Launch date (UTC)
2024-09-24 (1 year ago)
Launch vehicle
JIELONG-3
Launch site
Yellow Sea Launch Area, China (YSLA)
Object type
Unknown
Shape & HBR
Box + 1 Pan, 1.0 m
Radar Cross Section
3.032 m², Medium (>0.1 m² and < 1m²)

Expand to show TLE details & history
Last TLE update: 7 hours ago

TLE from 7 hours ago
0 OBJECT C
1 61229U 24173C   25311.32526205  .00030441  00000-0  86658-3 0  9992
2 61229  97.3635  27.0422 0014288 222.0507 137.9642 15.35962374 62525
Epoch: 2025-11-07T07:48Z
TLE epoch observation values (Epoch: 2025-11-07T07:48:22.641Z)
Latitude
0.00007°
Longitude
-136.82299°
Altitude
468.439 km
Speed
7.628 km/s
True Right ascension
01h 48m 10s
True Declination
0° 00' 00"
Sunlit
Object was in full shadow at epoch
Visualization orbit readout
Latitude
Unknown
Longitude
Unknown
Altitude
Unknown
Speed
Unknown
Apparent Right ascension
Unknown
Apparent Declination
Unknown
Sunlit
N/A
Visualization observer readout
Local Sidereal Time
11:00:02
Azimuth
Unknown
Elevation
Unknown
Doppler factor
Unknown
Orbital elements
Apogee altitude
464.769 km
Perigee altitude
445.243 km
Semi-major axis
6,833.143 km
Eccentricity
0.00143
Inclination
97.3635°
RAAN
27.0422°
Arg. of periapsis
222.0507°
True anomaly
138.07369°
Mean anomaly
137.9642°
Eccentric anomaly
138.01896°
Mean motion
3.84249 °/min
Orbital period
93.69 mins
BSTAR
0.00086658
Loading maneuver chart data...
Computing Atmospheric mass density...
Loading historical data...
Loading historical data...
Loading historical data...
Loading historical data...
Loading historical data...
Loading historical data...
Loading historical data...

Documentation

Showing up to 5 results
|